Weather History for Erie, PA

Change the Weather History Date:

Tuesday, October 8, 2013

  Actual Average Record
Temperature  
Mean Temperature 56 °F 56 °F  
Max Temperature 64 °F 63 °F 84 °F (2007)
Min Temperature 48 °F 48 °F 30 °F (1974)
Degree Days  
Heating Degree Days 9 10  
Month to date heating degree days 19 71  
Since 1 July heating degree days 151 195  
Cooling Degree Days 0 0  
Month to date cooling degree days 20 7  
Year to date cooling degree days 706 636  
Growing Degree Days 6 (Base 50)    
Moisture  
Dew Point 44 °F    
Average Humidity 63    
Maximum Humidity 86    
Minimum Humidity 40    
Precipitation  
Precipitation 0.00 in 0.14 in 1.54 in (1944)
Month to date precipitation 2.22 1.17  
Year to date precipitation 40.07 31.61  
Snow  
Snow 0.00 in 0.00 in - ()
Month to date snowfall 0.0 0.0  
Since 1 July snowfall 0.0 0.0  
Since 1 September snowfall 0.0 0.0  
Snow Depth 0.00 in    
Sea Level Pressure  
Sea Level Pressure 30.26 in    
Wind  
Wind Speed 5 mph (SSE)    
Max Wind Speed 10 mph    
Max Gust Speed 14 mph    
Visibility 10 miles    
Events      
T = Trace of Precipitation, MM = Missing Value Source: NWS Daily Summary

Daily Weather History Graph

Daily Weather History Graph

Search for Another Location

Airport:

Trip Planner

Search our weather history database for the weather conditions in past years. The results will help you decide how hot, cold, wet, or windy it might be!

Date:

Astronomy

Oct. 08, 2013 Rise Set
Actual Time 7:25 AM EDT 6:50 PM EDT
Civil Twilight 6:57 AM EDT 7:17 PM EDT
Nautical Twilight 6:25 AM EDT 7:50 PM EDT
Astronomical Twilight 5:52 AM EDT 8:22 PM EDT
Moon 11:22 AM EDT (10/8) 9:21 PM EDT (10/8)
Length of Visible Light 12h 20m
Length of Day
11h 24m
Waxing Crescent, 16% of the Moon is Illuminated
Oct 8
Waxing Crescent
Oct 11
First Quarter
Oct 18
Full
Oct 26
Last Quarter
Nov 3
New

Hourly Weather History & Observations

Time (EDT) Temp. Dew Point Humidity Pressure Visibility Wind Dir Wind Speed Gust Speed Precip Events Conditions
12:51 AM 51.1 °F 46.9 °F 86% 30.12 in 10.0 mi South 5.8 mph - N/A   Mostly Cloudy
1:51 AM 51.1 °F 46.9 °F 86% 30.13 in 10.0 mi South 6.9 mph - N/A   Mostly Cloudy
2:51 AM 50.0 °F 46.0 °F 86% 30.15 in 10.0 mi South 5.8 mph - N/A   Scattered Clouds
3:51 AM 50.0 °F 46.0 °F 86% 30.16 in 10.0 mi South 4.6 mph - N/A   Clear
4:51 AM 51.1 °F 46.9 °F 86% 30.17 in 10.0 mi Calm Calm - N/A   Mostly Cloudy
5:51 AM 50.0 °F 45.0 °F 83% 30.20 in 10.0 mi South 9.2 mph - N/A   Overcast
6:51 AM 50.0 °F 45.0 °F 83% 30.24 in 10.0 mi South 4.6 mph - N/A   Overcast
7:51 AM 48.9 °F 45.0 °F 86% 30.26 in 10.0 mi South 3.5 mph - N/A   Partly Cloudy
8:51 AM 52.0 °F 46.0 °F 80% 30.30 in 10.0 mi South 3.5 mph - N/A   Clear
9:51 AM 57.0 °F 48.9 °F 74% 30.30 in 10.0 mi SSE 4.6 mph - N/A   Clear
10:51 AM 62.1 °F 46.0 °F 56% 30.31 in 10.0 mi North 3.5 mph - N/A   Clear
11:51 AM 63.0 °F 41.0 °F 45% 30.32 in 10.0 mi NW 3.5 mph - N/A   Clear
12:51 PM 64.0 °F 39.9 °F 41% 30.32 in 10.0 mi NW 4.6 mph - N/A   Clear
1:51 PM 63.0 °F 42.1 °F 46% 30.31 in 10.0 mi NNW 6.9 mph - N/A   Clear
2:51 PM 64.0 °F 39.9 °F 41% 30.30 in 10.0 mi NNW 5.8 mph - N/A   Clear
3:51 PM 64.0 °F 41.0 °F 43% 30.30 in 10.0 mi North 8.1 mph - N/A   Clear
4:51 PM 63.0 °F 39.9 °F 43% 30.29 in 10.0 mi North 10.4 mph - N/A   Clear
5:51 PM 61.0 °F 39.0 °F 44% 30.29 in 10.0 mi NE 8.1 mph - N/A   Clear
6:51 PM 57.0 °F 41.0 °F 55% 30.30 in 10.0 mi NE 5.8 mph - N/A   Clear
7:51 PM 54.0 °F 43.0 °F 66% 30.31 in 10.0 mi East 3.5 mph - N/A   Clear
8:51 PM 53.1 °F 44.1 °F 71% 30.32 in 10.0 mi Calm Calm - N/A   Clear
9:51 PM 52.0 °F 42.1 °F 69% 30.32 in 10.0 mi Calm Calm - N/A   Clear
10:51 PM 51.1 °F 39.9 °F 66% 30.32 in 10.0 mi Calm Calm - N/A   Clear
11:51 PM 48.9 °F 41.0 °F 74% 30.32 in 10.0 mi SE 5.8 mph - N/A   Clear